| time (UTC) | temp F | wind direction | speed knots | gust knots | rain 1hr in | rain 24hr in | rain mn in | humidity % | barometer mb |
| 20260504081556 | 58 | 266 | 10.4 | 14.8 | 0.00 | 0.00 | 0.00 | 44 | 994.1 |
| 20260504050106 | 59 | 268 | 4.3 | 7.0 | 0.00 | 0.00 | 0.00 | 45 | 998.3 |
| 20260504044557 | 58 | 269 | 5.2 | 7.8 | 0.00 | 0.00 | 0.00 | 46 | 998.7 |
| 20260504043058 | 58 | 264 | 5.2 | 8.7 | 0.00 | 0.00 | 0.00 | 48 | 999.0 |
| 20260504041555 | 58 | 266 | 5.2 | 9.6 | 0.00 | 0.00 | 0.00 | 47 | 999.3 |
| 20260504040132 | 58 | 266 | 6.1 | 7.8 | 0.00 | 0.00 | 0.00 | 47 | 999.7 |
| 20260504034601 | 58 | 258 | 4.3 | 6.1 | 0.00 | 0.00 | 0.00 | 46 | 1000.1 |
| 20260504033052 | 58 | 264 | 3.5 | 7.0 | 0.00 | 0.00 | 0.00 | 46 | 1000.5 |
| 20260504031621 | 58 | 266 | 2.6 | 4.3 | 0.00 | 0.00 | 0.00 | 46 | 1000.8 |
| 20260504030053 | 58 | 270 | 1.7 | 3.5 | 0.00 | 0.00 | 0.00 | 48 | 1001.1 |
| 20260504024603 | 59 | 267 | 0.9 | 2.6 | 0.00 | 0.00 | 0.00 | 45 | 1001.5 |
| 20260504023056 | 59 | 266 | 1.7 | 2.6 | 0.00 | 0.00 | 0.00 | 44 | 1001.8 |
| 20260504021558 | 61 | 276 | 0.9 | 1.7 | 0.00 | 0.00 | 0.00 | 40 | 1001.9 |
| 20260504020112 | 61 | 271 | 0.9 | 2.6 | 0.00 | 0.00 | 0.00 | 39 | 1002.1 |
| 20260504014557 | 62 | 268 | 1.7 | 4.3 | 0.00 | 0.00 | 0.00 | 38 | 1002.2 |
| 20260504013056 | 63 | 267 | 3.5 | 5.2 | 0.00 | 0.00 | 0.00 | 36 | 1002.5 |
| 20260504011553 | 64 | 257 | 3.5 | 7.0 | 0.00 | 0.00 | 0.00 | 36 | 1002.7 |
| 20260504010058 | 65 | 271 | 7.0 | 10.4 | 0.00 | 0.00 | 0.00 | 34 | 1002.9 |
| 20260504004554 | 65 | 304 | 6.1 | 10.4 | 0.00 | 0.00 | 0.00 | 36 | 1003.1 |
| 20260504003053 | 66 | 271 | 5.2 | 9.6 | 0.00 | 0.00 | 0.00 | 34 | 1003.1 |
| 20260504001556 | 66 | 268 | 6.1 | 10.4 | 0.00 | 0.00 | 0.00 | 33 | 1003.1 |
| 20260504000056 | 66 | 297 | 8.7 | 12.2 | 0.00 | 0.00 | 0.00 | 33 | 1003.2 |
| 20260503234623 | 66 | 269 | 3.5 | 7.0 | 0.00 | 0.00 | 0.00 | 35 | 1003.5 |
| 20260503233055 | 66 | 297 | 6.1 | 10.4 | 0.00 | 0.00 | 0.00 | 33 | 1003.8 |
| 20260503231555 | 66 | 292 | 6.1 | 11.3 | 0.00 | 0.00 | 0.00 | 32 | 1004.0 |
| 20260503230058 | 66 | 299 | 8.7 | 13.9 | 0.00 | 0.00 | 0.00 | 30 | 1004.1 |
| 20260503224553 | 66 | 264 | 6.1 | 10.4 | 0.00 | 0.00 | 0.00 | 31 | 1004.0 |
| 20260503223054 | 66 | 261 | 6.1 | 12.2 | 0.00 | 0.00 | 0.00 | 31 | 1004.0 |
| 20260503221559 | 67 | 295 | 3.5 | 9.6 | 0.00 | 0.00 | 0.00 | 31 | 1004.2 |
| 20260503220058 | 66 | 304 | 6.1 | 8.7 | 0.00 | 0.00 | 0.00 | 30 | 1004.3 |
| 20260503214553 | 66 | 256 | 6.1 | 12.2 | 0.00 | 0.00 | 0.00 | 29 | 1004.6 |
| 20260503213055 | 66 | 262 | 5.2 | 10.4 | 0.00 | 0.00 | 0.00 | 30 | 1004.8 |
| 20260503211552 | 66 | 293 | 5.2 | 11.3 | 0.00 | 0.00 | 0.00 | 30 | 1005.0 |
| 20260503210054 | 66 | 269 | 6.1 | 9.6 | 0.00 | 0.00 | 0.00 | 31 | 1005.2 |
| 20260503204557 | 66 | 301 | 7.0 | 9.6 | 0.00 | 0.00 | 0.00 | 31 | 1005.2 |
| 20260503203057 | 66 | 354 | 1.7 | 8.7 | 0.00 | 0.00 | 0.00 | 32 | 1005.5 |
| 20260503201558 | 67 | 290 | 3.5 | 7.8 | 0.00 | 0.00 | 0.00 | 31 | 1005.7 |
| 20260503200058 | 65 | 295 | 5.2 | 9.6 | 0.00 | 0.00 | 0.00 | 30 | 1005.8 |
| 20260503194600 | 66 | 251 | 4.3 | 8.7 | 0.00 | 0.00 | 0.00 | 29 | 1005.9 |
| 20260503193058 | 65 | 304 | 3.5 | 10.4 | 0.00 | 0.00 | 0.00 | 30 | 1006.0 |
| 20260503191555 | 65 | 311 | 3.5 | 7.0 | 0.00 | 0.00 | 0.00 | 32 | 1006.2 |
| 20260503190053 | 65 | 264 | 2.6 | 6.1 | 0.00 | 0.00 | 0.00 | 30 | 1006.6 |
| 20260503184558 | 64 | 327 | 4.3 | 9.6 | 0.00 | 0.00 | 0.00 | 31 | 1006.9 |
| 20260503183054 | 63 | 304 | 5.2 | 8.7 | 0.00 | 0.00 | 0.00 | 32 | 1007.0 |
| 20260503181555 | 65 | 304 | 2.6 | 7.0 | 0.00 | 0.00 | 0.00 | 31 | 1007.2 |
| 20260503180100 | 64 | 304 | 2.6 | 7.0 | 0.00 | 0.00 | 0.00 | 30 | 1007.5 |
| 20260503173109 | 63 | 96 | 3.5 | 7.8 | 0.00 | 0.00 | 0.00 | 30 | 1007.6 |
| 20260503171554 | 62 | 354 | 2.6 | 6.1 | 0.00 | 0.00 | 0.00 | 29 | 1007.6 |